Time,TemperatureF,DewpointF,PressureIn,WindDirection,WindDirectionDegrees,WindSpeedMPH,WindSpeedGustMPH,Humidity,HourlyPrecipIn,Conditions,Clouds,dailyrainin,SoftwareType,DateUTC
2013-03-23 00:02:00,8.0,8.0,-100.00,NNW,347,0.0,2.0,98,-99.99,,,-99.99,,2013-03-23 06:02:00,
2013-03-23 00:12:00,8.0,8.0,-100.00,NNW,347,0.0,2.0,98,-99.99,,,-99.99,,2013-03-23 06:12:00,
2013-03-23 00:22:00,8.0,8.0,-100.00,North,7,1.0,2.0,98,-99.99,,,-99.99,,2013-03-23 06:22:00,
2013-03-23 00:32:00,8.0,8.0,-100.00,North,7,1.0,2.0,98,-99.99,,,-99.99,,2013-03-23 06:32:00,
2013-03-23 00:42:00,8.0,8.0,-100.00,North,7,1.0,2.0,98,-99.99,,,-99.99,,2013-03-23 06:42:00,
2013-03-23 01:32:00,5.0,4.0,-100.00,NW,312,1.0,3.0,95,-99.99,,,-99.99,,2013-03-23 07:32:00,
2013-03-23 01:42:00,5.0,4.0,-100.00,NW,312,1.0,3.0,95,-99.99,,,-99.99,,2013-03-23 07:42:00,
2013-03-23 01:52:00,5.0,4.0,-100.00,North,350,0.0,1.0,95,-99.99,,,-99.99,,2013-03-23 07:52:00,
2013-03-23 02:02:00,5.0,4.0,-100.00,NNW,332,1.0,2.0,94,-99.99,,,-99.99,,2013-03-23 08:02:00,
2013-03-23 02:12:00,5.0,4.0,-100.00,NNW,332,1.0,2.0,94,-99.99,,,-99.99,,2013-03-23 08:12:00,
2013-03-23 02:22:00,5.0,4.0,-100.00,North,6,1.0,2.0,94,-99.99,,,-99.99,,2013-03-23 08:22:00,
2013-03-23 02:32:00,6.0,5.0,-100.00,North,10,1.0,2.0,95,-99.99,,,-99.99,,2013-03-23 08:32:00,
2013-03-23 02:42:00,6.0,5.0,-100.00,North,10,1.0,2.0,95,-99.99,,,-99.99,,2013-03-23 08:42:00,
2013-03-23 02:52:00,6.0,4.0,-100.00,NNE,12,1.0,3.0,93,-99.99,,,-99.99,,2013-03-23 08:52:00,
2013-03-23 03:02:00,6.0,4.0,-100.00,North,356,1.0,3.0,91,-99.99,,,-99.99,,2013-03-23 09:02:00,
2013-03-23 03:12:00,6.0,4.0,-100.00,North,356,1.0,3.0,91,-99.99,,,-99.99,,2013-03-23 09:12:00,
2013-03-23 03:22:00,6.0,4.0,-100.00,North,1,1.0,5.0,90,-99.99,,,-99.99,,2013-03-23 09:22:00,
2013-03-23 03:32:00,5.0,3.0,-100.00,NNE,21,1.0,3.0,91,-99.99,,,-99.99,,2013-03-23 09:32:00,
2013-03-23 03:42:00,5.0,3.0,-100.00,NNE,21,1.0,3.0,91,-99.99,,,-99.99,,2013-03-23 09:42:00,
2013-03-23 03:52:00,6.0,4.0,-100.00,North,359,1.0,3.0,93,-99.99,,,-99.99,,2013-03-23 09:52:00,
2013-03-23 04:03:00,6.0,4.0,-100.00,North,11,2.0,4.0,92,-99.99,,,-99.99,,2013-03-23 10:03:00,
2013-03-23 04:12:00,6.0,4.0,-100.00,North,11,2.0,4.0,92,-99.99,,,-99.99,,2013-03-23 10:12:00,
2013-03-23 04:23:00,6.0,4.0,-100.00,NNE,13,1.0,3.0,92,-99.99,,,-99.99,,2013-03-23 10:23:00,
2013-03-23 04:33:00,6.0,4.0,-100.00,NNW,346,0.0,2.0,92,-99.99,,,-99.99,,2013-03-23 10:33:00,
2013-03-23 04:42:00,6.0,4.0,-100.00,NNW,346,0.0,2.0,92,-99.99,,,-99.99,,2013-03-23 10:42:00,
2013-03-23 04:52:00,6.0,4.0,-100.00,North,4,1.0,3.0,91,-99.99,,,-99.99,,2013-03-23 10:52:00,
2013-03-23 05:02:00,6.0,4.0,-100.00,North,7,2.0,6.0,91,-99.99,,,-99.99,,2013-03-23 11:02:00,
2013-03-23 05:12:00,6.0,4.0,-100.00,North,7,2.0,6.0,91,-99.99,,,-99.99,,2013-03-23 11:12:00,
2013-03-23 05:22:00,6.0,4.0,-100.00,North,5,1.0,4.0,90,-99.99,,,-99.99,,2013-03-23 11:22:00,
2013-03-23 05:32:00,5.0,3.0,-100.00,NNE,16,1.0,3.0,90,-99.99,,,-99.99,,2013-03-23 11:32:00,
2013-03-23 05:42:00,5.0,3.0,-100.00,NNE,16,1.0,3.0,90,-99.99,,,-99.99,,2013-03-23 11:42:00,
2013-03-23 05:51:00,5.0,3.0,-100.00,North,1,1.0,3.0,91,-99.99,,,-99.99,,2013-03-23 11:51:00,
2013-03-23 06:02:00,5.0,3.0,-100.00,North,4,1.0,3.0,92,-99.99,,,-99.99,,2013-03-23 12:02:00,
2013-03-23 06:12:00,5.0,3.0,-100.00,North,4,1.0,3.0,92,-99.99,,,-99.99,,2013-03-23 12:12:00,
2013-03-23 06:22:00,5.0,4.0,-100.00,North,0,1.0,2.0,94,-99.99,,,-99.99,,2013-03-23 12:22:00,
2013-03-23 06:33:00,5.0,4.0,-100.00,North,6,2.0,7.0,95,-99.99,,,-99.99,,2013-03-23 12:33:00,
2013-03-23 06:42:00,5.0,4.0,-100.00,North,6,2.0,7.0,95,-99.99,,,-99.99,,2013-03-23 12:42:00,
2013-03-23 06:52:00,6.0,5.0,-100.00,NNE,15,2.0,4.0,94,-99.99,,,-99.99,,2013-03-23 12:52:00,
2013-03-23 07:02:00,6.0,4.0,-100.00,North,1,2.0,6.0,93,-99.99,,,-99.99,,2013-03-23 13:02:00,
2013-03-23 07:12:00,6.0,4.0,-100.00,North,1,2.0,6.0,93,-99.99,,,-99.99,,2013-03-23 13:12:00,
2013-03-23 07:22:00,6.0,4.0,-100.00,North,7,1.0,3.0,91,-99.99,,,-99.99,,2013-03-23 13:22:00,
2013-03-23 07:32:00,6.0,4.0,-100.00,NNE,18,1.0,4.0,90,-99.99,,,-99.99,,2013-03-23 13:32:00,
2013-03-23 07:42:00,6.0,4.0,-100.00,NNE,18,1.0,4.0,90,-99.99,,,-99.99,,2013-03-23 13:42:00,
2013-03-23 07:52:00,6.0,3.0,-100.00,North,352,1.0,4.0,89,-99.99,,,-99.99,,2013-03-23 13:52:00,
2013-03-23 08:02:00,6.0,3.0,-100.00,North,4,1.0,4.0,88,-99.99,,,-99.99,,2013-03-23 14:02:00,
2013-03-23 08:12:00,6.0,3.0,-100.00,North,4,1.0,4.0,88,-99.99,,,-99.99,,2013-03-23 14:12:00,
2013-03-23 08:22:00,5.0,3.0,-100.00,North,355,0.0,2.0,90,-99.99,,,-99.99,,2013-03-23 14:22:00,
2013-03-23 08:32:00,6.0,4.0,-100.00,North,4,1.0,3.0,92,-99.99,,,-99.99,,2013-03-23 14:32:00,
2013-03-23 08:42:00,6.0,4.0,-100.00,North,4,1.0,3.0,92,-99.99,,,-99.99,,2013-03-23 14:42:00,
2013-03-23 08:52:00,6.0,4.0,-100.00,NNW,343,1.0,2.0,91,-99.99,,,-99.99,,2013-03-23 14:52:00,
2013-03-23 09:02:00,7.0,5.0,-100.00,NW,318,2.0,4.0,92,-99.99,,,-99.99,,2013-03-23 15:02:00,
2013-03-23 09:12:00,7.0,5.0,-100.00,NW,318,2.0,4.0,92,-99.99,,,-99.99,,2013-03-23 15:12:00,
2013-03-23 09:22:00,8.0,6.0,-100.00,North,7,1.0,3.0,91,-99.99,,,-99.99,,2013-03-23 15:22:00,
2013-03-23 09:33:00,9.0,6.0,-100.00,NNE,13,2.0,4.0,89,-99.99,,,-99.99,,2013-03-23 15:33:00,
2013-03-23 09:43:00,9.0,6.0,-100.00,NNE,13,2.0,4.0,89,-99.99,,,-99.99,,2013-03-23 15:43:00,
2013-03-23 09:52:00,10.0,7.0,-100.00,North,356,2.0,4.0,89,-99.99,,,-99.99,,2013-03-23 15:52:00,
2013-03-23 10:03:00,11.0,8.0,-100.00,North,355,3.0,4.0,89,-99.99,,,-99.99,,2013-03-23 16:03:00,
2013-03-23 10:12:00,11.0,8.0,-100.00,North,355,3.0,4.0,89,-99.99,,,-99.99,,2013-03-23 16:12:00,
2013-03-23 10:22:00,10.0,8.0,-100.00,NNE,20,2.0,5.0,91,-99.99,,,-99.99,,2013-03-23 16:22:00,
2013-03-23 10:32:00,11.0,9.0,-100.00,North,357,2.0,4.0,90,-99.99,,,-99.99,,2013-03-23 16:32:00,
2013-03-23 10:42:00,11.0,9.0,-100.00,North,357,2.0,4.0,90,-99.99,,,-99.99,,2013-03-23 16:42:00,
2013-03-23 10:53:00,11.0,9.0,-100.00,North,4,2.0,4.0,92,-99.99,,,-99.99,,2013-03-23 16:53:00,
2013-03-23 11:02:00,12.0,10.0,-100.00,NNW,327,2.0,3.0,91,-99.99,,,-99.99,,2013-03-23 17:02:00,
2013-03-23 11:11:00,12.0,10.0,-100.00,NNW,327,2.0,3.0,91,-99.99,,,-99.99,,2013-03-23 17:11:00,
2013-03-23 11:22:00,12.0,10.0,-100.00,NNW,347,2.0,4.0,91,-99.99,,,-99.99,,2013-03-23 17:22:00,
2013-03-23 11:32:00,12.0,10.0,-100.00,North,349,2.0,5.0,91,-99.99,,,-99.99,,2013-03-23 17:32:00,
2013-03-23 11:42:00,12.0,10.0,-100.00,North,349,2.0,5.0,91,-99.99,,,-99.99,,2013-03-23 17:42:00,
2013-03-23 11:52:00,12.0,9.0,-100.00,North,0,3.0,5.0,88,-99.99,,,-99.99,,2013-03-23 17:52:00,
2013-03-23 12:02:00,13.0,11.0,-100.00,North,356,3.0,4.0,91,-99.99,,,-99.99,,2013-03-23 18:02:00,
2013-03-23 12:12:00,13.0,11.0,-100.00,North,356,3.0,4.0,91,-99.99,,,-99.99,,2013-03-23 18:12:00,
2013-03-23 12:22:00,14.0,10.0,-100.00,NNW,348,2.0,7.0,85,-99.99,,,-99.99,,2013-03-23 18:22:00,
2013-03-23 12:32:00,14.0,10.0,-100.00,North,3,2.0,5.0,83,-99.99,,,-99.99,,2013-03-23 18:32:00,
2013-03-23 12:42:00,14.0,10.0,-100.00,North,3,2.0,5.0,83,-99.99,,,-99.99,,2013-03-23 18:42:00,
2013-03-23 12:52:00,14.0,9.0,-100.00,NNE,19,2.0,5.0,81,-99.99,,,-99.99,,2013-03-23 18:52:00,
2013-03-23 13:02:00,16.0,11.0,-100.00,North,6,3.0,5.0,80,-99.99,,,-99.99,,2013-03-23 19:02:00,
2013-03-23 13:12:00,16.0,11.0,-100.00,North,6,3.0,5.0,80,-99.99,,,-99.99,,2013-03-23 19:12:00,
2013-03-23 13:22:00,14.0,11.0,-100.00,NNE,19,3.0,5.0,87,-99.99,,,-99.99,,2013-03-23 19:22:00,
2013-03-23 13:32:00,15.0,12.0,-100.00,NNE,15,3.0,7.0,87,-99.99,,,-99.99,,2013-03-23 19:32:00,
2013-03-23 13:42:00,15.0,12.0,-100.00,NNE,15,3.0,7.0,87,-99.99,,,-99.99,,2013-03-23 19:42:00,
2013-03-23 13:52:00,13.0,9.0,-100.00,WNW,303,2.0,5.0,84,-99.99,,,-99.99,,2013-03-23 19:52:00,
2013-03-23 14:02:00,16.0,11.0,-100.00,NNE,13,3.0,5.0,79,-99.99,,,-99.99,,2013-03-23 20:02:00,
2013-03-23 14:12:00,16.0,11.0,-100.00,NNE,13,3.0,5.0,79,-99.99,,,-99.99,,2013-03-23 20:12:00,
2013-03-23 14:22:00,16.0,9.0,-100.00,NNE,27,3.0,5.0,74,-99.99,,,-99.99,,2013-03-23 20:22:00,
2013-03-23 14:32:00,14.0,10.0,-100.00,North,9,2.0,4.0,85,-99.99,,,-99.99,,2013-03-23 20:32:00,
2013-03-23 14:42:00,14.0,10.0,-100.00,North,9,2.0,4.0,85,-99.99,,,-99.99,,2013-03-23 20:42:00,
2013-03-23 14:52:00,15.0,11.0,-100.00,NNE,13,2.0,5.0,83,-99.99,,,-99.99,,2013-03-23 20:52:00,
2013-03-23 15:02:00,17.0,10.0,-100.00,NNE,19,2.0,5.0,73,-99.99,,,-99.99,,2013-03-23 21:02:00,
2013-03-23 15:12:00,17.0,10.0,-100.00,NNE,19,2.0,5.0,73,-99.99,,,-99.99,,2013-03-23 21:12:00,
2013-03-23 15:22:00,15.0,8.0,-100.00,NNE,30,2.0,5.0,74,-99.99,,,-99.99,,2013-03-23 21:22:00,
2013-03-23 15:32:00,18.0,11.0,-100.00,NNE,25,2.0,4.0,72,-99.99,,,-99.99,,2013-03-23 21:32:00,
2013-03-23 15:43:00,18.0,11.0,-100.00,NNE,25,2.0,4.0,72,-99.99,,,-99.99,,2013-03-23 21:43:00,
2013-03-23 15:53:00,17.0,9.0,-100.00,NNE,27,2.0,4.0,71,-99.99,,,-99.99,,2013-03-23 21:53:00,
2013-03-23 16:02:00,18.0,10.0,-100.00,NNE,29,2.0,5.0,71,-99.99,,,-99.99,,2013-03-23 22:02:00,
2013-03-23 16:12:00,18.0,10.0,-100.00,NNE,29,2.0,5.0,71,-99.99,,,-99.99,,2013-03-23 22:12:00,
2013-03-23 16:23:00,17.0,10.0,-100.00,NE,36,2.0,5.0,72,-99.99,,,-99.99,,2013-03-23 22:23:00,
2013-03-23 16:32:00,16.0,9.0,-100.00,NNE,28,2.0,5.0,72,-99.99,,,-99.99,,2013-03-23 22:32:00,
2013-03-23 16:42:00,16.0,9.0,-100.00,NNE,28,2.0,5.0,72,-99.99,,,-99.99,,2013-03-23 22:42:00,
2013-03-23 16:52:00,15.0,9.0,-100.00,North,352,2.0,5.0,76,-99.99,,,-99.99,,2013-03-23 22:52:00,
2013-03-23 17:02:00,16.0,13.0,-100.00,NNE,14,2.0,4.0,86,-99.99,,,-99.99,,2013-03-23 23:02:00,
2013-03-23 17:12:00,16.0,13.0,-100.00,NNE,14,2.0,4.0,86,-99.99,,,-99.99,,2013-03-23 23:12:00,
2013-03-23 17:22:00,15.0,12.0,-100.00,NNE,29,2.0,4.0,86,-99.99,,,-99.99,,2013-03-23 23:22:00,
2013-03-23 17:32:00,14.0,8.0,-100.00,ENE,75,2.0,4.0,77,-99.99,,,-99.99,,2013-03-23 23:32:00,
2013-03-23 17:42:00,14.0,8.0,-100.00,ENE,75,2.0,4.0,77,-99.99,,,-99.99,,2013-03-23 23:42:00,
2013-03-23 17:52:00,13.0,7.0,-100.00,NNE,25,2.0,3.0,77,-99.99,,,-99.99,,2013-03-23 23:52:00,
2013-03-23 18:02:00,13.0,10.0,-100.00,NNE,17,1.0,2.0,86,-99.99,,,-99.99,,2013-03-24 00:02:00,
2013-03-23 18:12:00,13.0,10.0,-100.00,NNE,17,1.0,2.0,86,-99.99,,,-99.99,,2013-03-24 00:12:00,
2013-03-23 18:22:00,12.0,10.0,-100.00,NNE,16,1.0,4.0,90,-99.99,,,-99.99,,2013-03-24 00:22:00,
2013-03-23 18:32:00,12.0,8.0,-100.00,NNE,32,1.0,3.0,84,-99.99,,,-99.99,,2013-03-24 00:32:00,
2013-03-23 18:42:00,12.0,8.0,-100.00,NNE,32,1.0,3.0,84,-99.99,,,-99.99,,2013-03-24 00:42:00,
2013-03-23 18:52:00,12.0,9.0,-100.00,NE,39,1.0,3.0,88,-99.99,,,-99.99,,2013-03-24 00:52:00,
2013-03-23 19:02:00,11.0,8.0,-100.00,NNE,17,1.0,3.0,86,-99.99,,,-99.99,,2013-03-24 01:02:00,
2013-03-23 19:12:00,11.0,8.0,-100.00,NNE,17,1.0,3.0,86,-99.99,,,-99.99,,2013-03-24 01:12:00,
2013-03-23 19:22:00,11.0,9.0,-100.00,NNW,331,1.0,2.0,90,-99.99,,,-99.99,,2013-03-24 01:22:00,
2013-03-23 19:32:00,10.0,7.0,-100.00,SE,132,1.0,4.0,88,-99.99,,,-99.99,,2013-03-24 01:32:00,
2013-03-23 19:42:00,10.0,7.0,-100.00,SE,132,1.0,4.0,88,-99.99,,,-99.99,,2013-03-24 01:42:00,
2013-03-23 19:52:00,9.0,6.0,-100.00,SSE,162,1.0,1.0,89,-99.99,,,-99.99,,2013-03-24 01:52:00,
2013-03-23 20:02:00,9.0,7.0,-100.00,SE,141,1.0,2.0,92,-99.99,,,-99.99,,2013-03-24 02:02:00,
2013-03-23 20:12:00,9.0,7.0,-100.00,SE,141,1.0,2.0,92,-99.99,,,-99.99,,2013-03-24 02:12:00,
2013-03-23 20:21:00,8.0,6.0,-100.00,South,184,1.0,1.0,91,-99.99,,,-99.99,,2013-03-24 02:21:00,
2013-03-23 20:32:00,7.0,5.0,-100.00,South,180,0.0,1.0,92,-99.99,,,-99.99,,2013-03-24 02:32:00,
2013-03-23 20:42:00,7.0,5.0,-100.00,South,180,0.0,1.0,92,-99.99,,,-99.99,,2013-03-24 02:42:00,
2013-03-23 20:52:00,6.0,4.0,-100.00,SW,219,0.0,1.0,92,-99.99,,,-99.99,,2013-03-24 02:52:00,
2013-03-23 21:02:00,7.0,5.0,-100.00,SW,218,0.0,1.0,90,-99.99,,,-99.99,,2013-03-24 03:02:00,
2013-03-23 21:12:00,7.0,5.0,-100.00,SW,218,0.0,1.0,90,-99.99,,,-99.99,,2013-03-24 03:12:00,
2013-03-23 21:22:00,6.0,3.0,-100.00,SW,217,0.0,0.0,87,-99.99,,,-99.99,,2013-03-24 03:22:00,
2013-03-23 21:33:00,5.0,2.0,-100.00,WSW,249,0.0,1.0,86,-99.99,,,-99.99,,2013-03-24 03:33:00,
2013-03-23 21:42:00,5.0,2.0,-100.00,WSW,249,0.0,1.0,86,-99.99,,,-99.99,,2013-03-24 03:42:00,
2013-03-23 21:52:00,6.0,2.0,-100.00,SW,235,0.0,1.0,83,-99.99,,,-99.99,,2013-03-24 03:52:00,
2013-03-23 22:02:00,5.0,1.0,-100.00,SW,215,0.0,1.0,84,-99.99,,,-99.99,,2013-03-24 04:02:00,
2013-03-23 22:12:00,5.0,1.0,-100.00,SW,215,0.0,1.0,84,-99.99,,,-99.99,,2013-03-24 04:12:00,
2013-03-23 22:22:00,5.0,1.0,-100.00,SW,224,0.0,1.0,82,-99.99,,,-99.99,,2013-03-24 04:22:00,
2013-03-23 22:32:00,5.0,0.0,-100.00,South,190,1.0,4.0,81,-99.99,,,-99.99,,2013-03-24 04:32:00,
2013-03-23 22:42:00,5.0,0.0,-100.00,South,190,1.0,4.0,81,-99.99,,,-99.99,,2013-03-24 04:42:00,
2013-03-23 22:52:00,4.0,-1.0,-100.00,SSW,213,0.0,1.0,81,-99.99,,,-99.99,,2013-03-24 04:52:00,
2013-03-23 23:02:00,4.0,0.0,-100.00,SSW,200,1.0,3.0,82,-99.99,,,-99.99,,2013-03-24 05:02:00,
2013-03-23 23:12:00,4.0,0.0,-100.00,SSW,200,1.0,3.0,82,-99.99,,,-99.99,,2013-03-24 05:12:00,
2013-03-23 23:22:00,5.0,1.0,-100.00,SSW,192,1.0,3.0,83,-99.99,,,-99.99,,2013-03-24 05:22:00,
2013-03-23 23:32:00,5.0,1.0,-100.00,SSW,213,1.0,1.0,83,-99.99,,,-99.99,,2013-03-24 05:32:00,
2013-03-23 23:42:00,5.0,1.0,-100.00,SSW,213,1.0,1.0,83,-99.99,,,-99.99,,2013-03-24 05:42:00,
2013-03-23 23:52:00,4.0,0.0,-100.00,South,188,1.0,1.0,84,-99.99,,,-99.99,,2013-03-24 05:52:00,